Regional Weather Roundup
Issued by NWS Cleveland, OH

Home | Current Version | Previous Version | Graphics & Text | Print | Product List | Glossary On
Versions: 1 2 3 4 5 6 7 8 9 10 11 12 13 14 15 16 17 18 19 20 21 22 23 24 25 26 27 28 29 30 31 32 33 34 35 36 37 38 39 40 41 42 43 44 45 46 47 48 49 50
000
ASUS41 KCLE 292110
RWRCLE
OHIO REGIONAL WEATHER ROUNDUP
NATIONAL WEATHER SERVICE WILMINGTON, OH
500 PM EDT FRI JUL 29 2016

NOTE: "FAIR" INDICATES FEW OR NO CLOUDS BELOW 12,000 FEET WITH NO
SIGNIFICANT WEATHER AND/OR OBSTRUCTIONS TO VISIBILITY.

OHZ001>008-015>018-024>027-034-035-043-044-292200-
   NORTHWEST OHIO

CITY           SKY/WX    TMP DP  RH WIND       PRES   REMARKS
DEFIANCE       FAIR      80  68  66 N12       29.90S
FINDLAY        CLOUDY    81  66  60 NE12      29.90R
TOLEDO EXPRESS CLOUDY    75  66  73 NE12      29.92R
TOLEDO EXEC    CLOUDY    78  69  73 NE7G16    29.93R
LIMA           FAIR      77  73  87 N6        29.91S
$$

OHZ009>014-019>023-028>033-038-089-292200-
   NORTHEAST OHIO

CITY           SKY/WX    TMP DP  RH WIND       PRES   REMARKS
CLE-HOPKINS    PTSUNNY   82  63  52 E6        29.93F
CLE-LAKEFRONT  FAIR      81  70  69 NE13      29.91F
CUY CO. ARPT   PTSUNNY   84  68  58 E9        29.94S
LORAIN-ELYRIA  FAIR      80  68  66 NE13      29.91F
ASHTABULA      LGT RAIN  73  71  93 CALM      29.96F
AKRON-CANTON   PTSUNNY   81  66  60 N13       29.92S
WOOSTER        PTSUNNY   77  65  66 NE10      29.93S
MANSFIELD      LGT RAIN  72  66  81 SW10      29.94R
YOUNGSTOWN     TSTM      72  66  81 N14       29.96R
$$

OHZ042-051>053-060>062-070>072-077>081-292200-
  SOUTHWEST OHIO

CITY           SKY/WX    TMP DP  RH WIND       PRES   REMARKS
CINC-COVINGTON PTSUNNY   85  71  63 SW7       29.89F HX  90
CINC-LUNKEN    FAIR      85  74  69 S8        29.87F HX  92
HAMILTON       FAIR      87  69  54 W8        29.88F HX  91
DAYTON         PTSUNNY   80  67  64 E9        29.91R
WRIGHT-PAT AFB FAIR      73  72  94 SE10      29.89F THUNDER
DAYTON GENERAL CLOUDY    85  66  53 S6        29.88F
WILMINGTON     CLOUDY    75  69  81 N9        29.92R THUNDER
$$

OHZ036-037-039>041-045>050-054>059-063>069-073>076-082>088-292200-
  CENTRAL AND SOUTHEAST OHIO

CITY           SKY/WX    TMP DP  RH WIND       PRES   REMARKS
COLUMBUS       PTSUNNY   79  71  76 SW5       29.90F
OSU AIRPORT    FAIR      77  69  76 SW5       29.91S
BOLTON FIELD   LGT RAIN  75  72  88 S5        29.91F
RICKENBACK AFB FAIR      79  70  73 S3        29.90S
NEWARK         FAIR      84  69  60 SW8       29.90F
MARION         FAIR      82  65  56 SE7       29.91F
LANCASTER      FAIR      81  68  64 S6        29.91F
ZANESVILLE     FAIR      86  66  51 S3        29.90F
NEW PHILLY     FAIR      86  63  45 S3        29.91F
$$



USA.gov is the U.S. government's official web portal to all federal, state and local government web resources and services.